N999SB KOKC-

Flight info

Callsign N999SB
Flight time N/A
Altitude VFR
Route PATTERN WORK
Aircraft C700/M-VGDW/C

Departure

Time 2026-04-28 00:27
Airport OKC Will Rogers World Airport (KOKC)

Arrival

Time N/A
Airport -
Time Latitude Longitude Altitude Speed Heading
2026-04-28 00:10 35.39659 -97.58520 1286 ft 0 kts 41°
2026-04-28 00:16 35.39668 -97.58528 1286 ft 5 kts 270°
2026-04-28 00:17 35.39661 -97.58554 1286 ft 1 kts 271°
2026-04-28 00:17 35.39679 -97.58602 1287 ft 11 kts 328°
2026-04-28 00:17 35.39720 -97.58645 1287 ft 4 kts 277°
2026-04-28 00:17 35.39698 -97.58713 1287 ft 14 kts 225°
2026-04-28 00:18 35.39598 -97.58728 1289 ft 13 kts 182°
2026-04-28 00:18 35.39473 -97.58726 1288 ft 30 kts 180°
2026-04-28 00:18 35.39304 -97.58726 1290 ft 6 kts 179°
2026-04-28 00:18 35.39248 -97.58738 1292 ft 9 kts 203°
2026-04-28 00:19 35.39225 -97.58784 1293 ft 0 kts 263°
2026-04-28 00:19 35.39224 -97.58792 1293 ft 8 kts 268°
2026-04-28 00:19 35.39224 -97.58898 1291 ft 18 kts 268°
2026-04-28 00:19 35.39215 -97.59038 1289 ft 7 kts 209°
2026-04-28 00:20 35.39206 -97.59042 1289 ft 0 kts 207°
2026-04-28 00:20 35.39171 -97.59061 1288 ft 14 kts 184°
2026-04-28 00:20 35.39077 -97.59062 1289 ft 16 kts 180°
2026-04-28 00:21 35.38943 -97.59061 1290 ft 23 kts 177°
2026-04-28 00:21 35.38753 -97.59062 1287 ft 32 kts 179°
2026-04-28 00:21 35.38514 -97.59062 1290 ft 37 kts 180°
2026-04-28 00:21 35.38235 -97.59062 1289 ft 42 kts 178°
2026-04-28 00:22 35.37996 -97.59052 1286 ft 16 kts 169°
2026-04-28 00:22 35.37971 -97.59010 1285 ft 0 kts 110°
2026-04-28 00:23 35.37968 -97.59000 1285 ft 6 kts 112°
2026-04-28 00:23 35.37979 -97.58926 1286 ft 8 kts 57°
2026-04-28 00:23 35.38012 -97.58899 1286 ft 4 kts
2026-04-28 00:24 35.38026 -97.58895 1285 ft 0 kts
2026-04-28 00:24 35.38028 -97.58895 1285 ft 4 kts
2026-04-28 00:24 35.38178 -97.58893 1285 ft 38 kts
2026-04-28 00:24 35.38532 -97.58894 1288 ft 62 kts
2026-04-28 00:25 35.38958 -97.58916 1323 ft 63 kts 359°
2026-04-28 00:25 35.39403 -97.58940 1373 ft 63 kts 356°
2026-04-28 00:25 35.39838 -97.59008 1459 ft 60 kts 351°
2026-04-28 00:25 35.40225 -97.59259 1450 ft 69 kts 334°
2026-04-28 00:26 35.40640 -97.59609 1484 ft 72 kts 333°
2026-04-28 00:26 35.41059 -97.59949 1547 ft 72 kts 332°
2026-04-28 00:26 35.41459 -97.60293 1677 ft 66 kts 336°
2026-04-28 00:26 35.41822 -97.60610 1879 ft 63 kts 332°
2026-04-28 00:27 35.42162 -97.60925 2046 ft 61 kts 328°
2026-04-28 00:27 35.42502 -97.61257 2141 ft 64 kts 327°
2026-04-28 00:27 35.42601 -97.61860 2185 ft 88 kts 267°
2026-04-28 00:27 35.42525 -97.62640 2167 ft 96 kts 271°
2026-04-28 00:28 35.42443 -97.63466 2170 ft 99 kts 268°
2026-04-28 00:28 35.41963 -97.64091 2159 ft 116 kts 195°
2026-04-28 00:28 35.41121 -97.64078 2170 ft 126 kts 174°
2026-04-28 00:28 35.40244 -97.63991 2168 ft 126 kts 175°
2026-04-28 00:29 35.39364 -97.63902 2172 ft 128 kts 174°
2026-04-28 00:29 35.38489 -97.63818 2173 ft 127 kts 175°
2026-04-28 00:29 35.37605 -97.63739 2162 ft 127 kts 175°
2026-04-28 00:29 35.36725 -97.63649 2159 ft 126 kts 176°
2026-04-28 00:30 35.35856 -97.63546 2156 ft 125 kts 175°
2026-04-28 00:30 35.34998 -97.63472 2147 ft 120 kts 177°
2026-04-28 00:30 35.34182 -97.63368 2155 ft 119 kts 174°
2026-04-28 00:30 35.33556 -97.62874 2150 ft 105 kts 102°
2026-04-28 00:31 35.33450 -97.62025 2156 ft 99 kts 85°
2026-04-28 00:31 35.33444 -97.61181 2163 ft 103 kts 83°
2026-04-28 00:31 35.33448 -97.60290 2148 ft 102 kts 73°
2026-04-28 00:31 35.33905 -97.59843 2153 ft 85 kts
2026-04-28 00:32 35.34458 -97.60079 1995 ft 90 kts 331°
2026-04-28 00:32 35.34997 -97.60446 1835 ft 84 kts 347°
2026-04-28 00:32 35.35569 -97.60571 1728 ft 86 kts 359°
2026-04-28 00:32 35.36157 -97.60573 1714 ft 72 kts 360°
2026-04-28 00:33 35.36607 -97.60567 1561 ft 65 kts
2026-04-28 00:33 35.37106 -97.60540 1451 ft 72 kts
2026-04-28 00:33 35.37638 -97.60563 1413 ft 82 kts
2026-04-28 00:33 35.38228 -97.60568 1326 ft 84 kts
2026-04-28 00:34 35.38746 -97.60567 1327 ft 64 kts 358°
2026-04-28 00:34 35.39177 -97.60672 1353 ft 68 kts 348°
2026-04-28 00:34 35.39629 -97.60902 1414 ft 70 kts 338°
2026-04-28 00:34 35.40052 -97.61189 1441 ft 81 kts 324°
2026-04-28 00:35 35.40500 -97.61655 1551 ft 82 kts 320°
2026-04-28 00:35 35.40876 -97.62181 1765 ft 81 kts 314°
2026-04-28 00:35 35.41234 -97.62730 1935 ft 86 kts 309°
2026-04-28 00:35 35.41743 -97.63048 2063 ft 88 kts
2026-04-28 00:36 35.42203 -97.63470 2142 ft 100 kts 288°
2026-04-28 00:36 35.41956 -97.64327 2172 ft 117 kts 245°
2026-04-28 00:36 35.41544 -97.65244 2160 ft 127 kts 255°
2026-04-28 00:36 35.41163 -97.66215 2143 ft 124 kts 249°
2026-04-28 00:37 35.40542 -97.66951 2140 ft 128 kts 207°
2026-04-28 00:37 35.39681 -97.67096 2157 ft 126 kts 184°
2026-04-28 00:37 35.38809 -97.67149 2148 ft 126 kts 177°
2026-04-28 00:37 35.38032 -97.66727 2145 ft 122 kts 137°
2026-04-28 00:38 35.37401 -97.66072 2150 ft 118 kts 144°
2026-04-28 00:38 35.36639 -97.65765 2149 ft 118 kts 183°
2026-04-28 00:38 35.35842 -97.65693 2134 ft 111 kts 152°
2026-04-28 00:38 35.35525 -97.65002 2148 ft 90 kts 91°
2026-04-28 00:39 35.35420 -97.64271 2138 ft 82 kts 89°
2026-04-28 00:39 35.35313 -97.63613 2148 ft 77 kts 90°
2026-04-28 00:39 35.35334 -97.62985 2075 ft 78 kts 39°
2026-04-28 00:39 35.35880 -97.62662 1936 ft 99 kts 19°
2026-04-28 00:40 35.36625 -97.62374 1803 ft 111 kts 26°
2026-04-28 00:40 35.37180 -97.61717 1761 ft 117 kts 52°
2026-04-28 00:40 35.37657 -97.60924 1609 ft 108 kts 41°
2026-04-28 00:40 35.38235 -97.60568 1365 ft 83 kts
2026-04-28 00:41 35.38691 -97.60568 1293 ft 49 kts
2026-04-28 00:41 35.39065 -97.60561 1298 ft 62 kts 360°
2026-04-28 00:41 35.39519 -97.60562 1324 ft 68 kts
2026-04-28 00:41 35.39995 -97.60565 1385 ft 67 kts
2026-04-28 00:42 35.40445 -97.60569 1480 ft 63 kts
2026-04-28 00:42 35.40872 -97.60555 1542 ft 62 kts
2026-04-28 00:42 35.41281 -97.60590 1598 ft 54 kts
2026-04-28 00:42 35.41632 -97.60609 1773 ft 53 kts
2026-04-28 00:43 35.41926 -97.60811 1861 ft 70 kts 274°
2026-04-28 00:43 35.41698 -97.61362 1776 ft 55 kts 302°
2026-04-28 00:43 35.41671 -97.61454 1257 ft 0 kts 295°
2026-04-28 00:44 35.39659 -97.58520 1286 ft 0 kts 41°
2026-04-28 00:46 35.39665 -97.58536 1286 ft 6 kts 252°
2026-04-28 00:46 35.39650 -97.58576 1286 ft 4 kts 257°
2026-04-28 00:47 35.39660 -97.58601 1286 ft 8 kts 343°
2026-04-28 00:47 35.39713 -97.58656 1287 ft 9 kts 278°
2026-04-28 00:47 35.39723 -97.58772 1287 ft 8 kts 268°
2026-04-28 00:47 35.39722 -97.58782 1287 ft 0 kts 257°
2026-04-28 00:48 35.39723 -97.58876 1289 ft 22 kts 276°
2026-04-28 00:48 35.39663 -97.59066 1293 ft 23 kts 174°
2026-04-28 00:49 35.39437 -97.59060 1292 ft 37 kts 180°
2026-04-28 00:49 35.39194 -97.59061 1289 ft 33 kts 182°
2026-04-28 00:49 35.38995 -97.59062 1290 ft 25 kts 179°
2026-04-28 00:49 35.38801 -97.59064 1288 ft 42 kts 182°
2026-04-28 00:50 35.38553 -97.59044 1290 ft 21 kts 143°
2026-04-28 00:50 35.38546 -97.59003 1290 ft 0 kts 75°
2026-04-28 00:55 35.38552 -97.58955 1289 ft 10 kts 66°
2026-04-28 00:55 35.38631 -97.58898 1289 ft 25 kts
2026-04-28 00:55 35.38936 -97.58894 1291 ft 62 kts
2026-04-28 00:55 35.39457 -97.58895 1326 ft 82 kts
2026-04-28 00:56 35.40030 -97.58910 1463 ft 82 kts
2026-04-28 00:56 35.40578 -97.58859 1647 ft 78 kts
2026-04-28 00:56 35.41069 -97.58826 1918 ft 65 kts 360°
2026-04-28 00:56 35.41535 -97.58889 2098 ft 69 kts 352°
2026-04-28 00:57 35.42059 -97.58939 2180 ft 87 kts 359°
2026-04-28 00:57 35.42717 -97.58956 2195 ft 101 kts
2026-04-28 00:57 35.43434 -97.58965 2205 ft 104 kts
2026-04-28 00:57 35.44165 -97.59069 2185 ft 111 kts 336°
2026-04-28 00:58 35.44521 -97.59915 2183 ft 124 kts 277°
2026-04-28 00:58 35.44418 -97.60999 2187 ft 129 kts 273°
2026-04-28 00:58 35.44311 -97.62081 2183 ft 128 kts 271°
2026-04-28 00:58 35.44230 -97.63152 2189 ft 126 kts 271°
2026-04-28 00:59 35.44080 -97.64223 2182 ft 133 kts 251°
2026-04-28 00:59 35.43353 -97.64856 2165 ft 128 kts 188°
2026-04-28 00:59 35.42498 -97.64967 2187 ft 122 kts 187°
2026-04-28 00:59 35.41650 -97.65041 2185 ft 124 kts 184°
2026-04-28 01:00 35.40798 -97.65127 2182 ft 121 kts 186°
2026-04-28 01:00 35.39960 -97.65205 2187 ft 121 kts 185°
2026-04-28 01:00 35.39120 -97.65296 2190 ft 121 kts 185°
2026-04-28 01:00 35.38288 -97.65391 2185 ft 119 kts 186°
2026-04-28 01:01 35.37476 -97.65469 2186 ft 118 kts 186°
2026-04-28 01:01 35.36661 -97.65543 2184 ft 117 kts 185°
2026-04-28 01:01 35.35866 -97.65633 2178 ft 110 kts 186°
2026-04-28 01:01 35.35109 -97.65694 2186 ft 110 kts 185°
2026-04-28 01:02 35.34405 -97.65516 2181 ft 102 kts 129°
2026-04-28 01:02 35.34209 -97.64781 2182 ft 87 kts 94°
2026-04-28 01:02 35.34086 -97.64086 2209 ft 81 kts 94°
2026-04-28 01:02 35.33982 -97.63412 2195 ft 83 kts 87°
2026-04-28 01:03 35.33925 -97.62682 2168 ft 80 kts 83°
2026-04-28 01:03 35.34127 -97.62061 2133 ft 82 kts 56°
2026-04-28 01:03 35.34369 -97.61364 1980 ft 91 kts 64°
2026-04-28 01:03 35.34624 -97.60710 1935 ft 85 kts 58°
2026-04-28 01:04 35.34861 -97.60049 1961 ft 81 kts 60°
2026-04-28 01:04 35.35229 -97.59694 2042 ft 61 kts 351°
2026-04-28 01:04 35.35651 -97.60015 1873 ft 78 kts 328°
2026-04-28 01:04 35.36092 -97.60408 1692 ft 73 kts 343°
2026-04-28 01:05 35.36546 -97.60577 1587 ft 64 kts
2026-04-28 01:05 35.36962 -97.60571 1474 ft 60 kts 11°
2026-04-28 01:05 35.37357 -97.60571 1394 ft 56 kts 10°
2026-04-28 01:05 35.37781 -97.60576 1374 ft 65 kts
2026-04-28 01:06 35.38258 -97.60574 1295 ft 65 kts
2026-04-28 01:06 35.38565 -97.60560 1293 ft 26 kts
2026-04-28 01:06 35.38743 -97.60566 1293 ft 26 kts 355°
2026-04-28 01:06 35.38881 -97.60567 1295 ft 15 kts
2026-04-28 01:07 35.38950 -97.60555 1296 ft 5 kts 21°
2026-04-28 01:07 35.38978 -97.60503 1296 ft 7 kts 92°
2026-04-28 01:07 35.38978 -97.60471 1296 ft 0 kts 91°
2026-04-28 01:08 35.38978 -97.60394 1294 ft 15 kts 85°
2026-04-28 01:08 35.38978 -97.60245 1292 ft 32 kts 90°
2026-04-28 01:08 35.38977 -97.59977 1295 ft 27 kts 88°
2026-04-28 01:09 35.38977 -97.59683 1290 ft 30 kts 89°
2026-04-28 01:09 35.38979 -97.59516 1290 ft 25 kts 85°
2026-04-28 01:09 35.38977 -97.59206 1288 ft 32 kts 87°
2026-04-28 01:09 35.39033 -97.59060 1290 ft 16 kts 12°
2026-04-28 01:10 35.39125 -97.59059 1288 ft 11 kts 360°
2026-04-28 01:10 35.39190 -97.59060 1289 ft 9 kts 15°
2026-04-28 01:10 35.39218 -97.59005 1289 ft 1 kts 91°
2026-04-28 01:12 35.39219 -97.58913 1291 ft 28 kts 84°
2026-04-28 01:13 35.39262 -97.58727 1292 ft 20 kts 23°
2026-04-28 01:13 35.39589 -97.58725 1289 ft 23 kts 358°
2026-04-28 01:13 35.39711 -97.58716 1287 ft 12 kts 59°
2026-04-28 01:14 35.39714 -97.58640 1287 ft 8 kts 111°
2026-04-28 01:14 35.39676 -97.58601 1287 ft 8 kts 138°
2026-04-28 01:14 35.39640 -97.58549 1286 ft 8 kts 90°
2026-04-28 01:14 35.39640 -97.58538 1286 ft 0 kts 85°
2026-04-28 01:15 35.39640 -97.58535 1286 ft 0 kts 82°